Home   Weather   Pueblo   Past weeks

Flag for USA Past Weather in Pueblo, Colorado, USA — Yesterday and Last 2 Weeks

Now
85 °F

Sunny.


Feels Like: 82 °F
Forecast: 51 / 85 °F
Wind: 14 mph from East

Location: Pueblo Memorial Airport

Current Time: Sep 28, 2016 at 4:20:24 PM

Latest Report: Sep 28, 2016 at 3:53 PM


Visibility: 10 mi

Pressure: 30.07 "Hg (25.59 "Hg at 1430m altitude)

Humidity: 14%

Dew Point: 31 °F

Location of PuebloLocation

Past Weather in Pueblo — Graph

°F

Pueblo Temperature Yesterday

Maximum temperature yesterday: 87 °F (at 3:53 PM)
Minimum temperature yesterday: 44 °F (at 6:53 AM)
Average temperature yesterday: 64 °F

High & Low Weather Summary for the Past Weeks

 TemperatureHumidityPressure
High95 °F (Sep 19, 2:53 PM)90% (Sep 14, 7:53 AM)30.36 "Hg (Sep 14, 7:53 AM)
Low40 °F (Sep 26, 6:53 AM)6% (Sep 17, 4:53 PM)29.46 "Hg (Sep 23, 3:53 PM)
Average67 °F37%29.96 "Hg
* Reported Sep 13 2:53 PM — Sep 28 2:53 PM, Pueblo, Weather by CustomWeather, © 2016

Note: Actual official high and low records may vary slightly from our data, if they occured in-between our weather recording intervals... More about our weather records

Advertising

Pueblo Weather History for the Previous 24 Hours

Scroll right to see more
 ConditionsComfort  
Time TempWeatherWind HumidityBarometerVisibility
2:53 PM
Wed, Sep 28
85 °FSunny.10 mph16%30.08 "Hg10 mi
1:53 PM83 °FSunny.9 mph17%30.10 "Hg10 mi
12:53 PM81 °FSunny.10 mph18%30.11 "Hg10 mi
11:53 AM78 °FSunny.5 mph19%30.13 "Hg10 mi
10:53 AM75 °FSunny.6 mph21%30.16 "Hg10 mi
9:53 AM74 °FSunny.5 mph21%30.14 "Hg10 mi
8:53 AM67 °FSunny.6 mph26%30.14 "Hg10 mi
7:53 AM58 °FSunny.7 mph35%30.14 "Hg10 mi
6:53 AM50 °FSunny.8 mph46%30.11 "Hg10 mi
5:53 AM49 °FClear.7 mph55%30.07 "Hg10 mi
4:53 AM55 °FClear.8 mph40%30.03 "Hg10 mi
3:53 AM59 °FClear.12 mph35%30.00 "Hg10 mi
2:53 AM58 °FClear.10 mph38%30.18 "Hg10 mi
1:53 AM55 °FClear.7 mph44%30.17 "Hg10 mi
12:53 AM58 °FClear.3 mph43%30.15 "Hg10 mi
11:53 PM
Tue, Sep 27
60 °FClear.12 mph33%30.15 "Hg10 mi
10:53 PM59 °FClear.8 mph33%30.14 "Hg10 mi
9:53 PM61 °FClear.No wind30%30.12 "Hg10 mi
8:53 PM65 °FClear.7 mph27%30.11 "Hg10 mi
7:53 PM68 °FClear.7 mph26%30.09 "Hg10 mi
6:53 PM78 °FClear.8 mph21%30.08 "Hg10 mi
5:53 PM84 °FSunny.9 mph15%30.07 "Hg10 mi
4:53 PM87 °FSunny.5 mph12%30.07 "Hg10 mi
Weather by CustomWeather, © 2016

See weather overviewHow to use our weather pages